ATLAS CENTAUR 2 R/B 1 00694U 63047A 25039.84589970 .00003733 00000-0 44991-3 0 9994 2 00694 30.3550 233.1902 0556059 214.8036 141.4964 14.10014219 75959 THOR AGENA D R/B 1 733U 64002A 25039.95865592 .00000626 00000-0 24195-3 0 9991 2 733 99.1048 27.1855 0032506 326.3270 33.5848 14.33680716182318 SL-3 R/B 1 00877U 64053B 25039.38356886 .00000614 00000-0 14739-3 0 9994 2 00877 65.0773 46.7752 0047614 94.1164 266.5379 14.60898361209184 SL-8 R/B 1 2802U 67045B 25040.17667637 .00000613 00000-0 17844-3 0 9995 2 2802 74.0130 2.7665 0063304 105.4261 255.3901 14.45214132 32265 SL-8 R/B 1 03230U 68040B 25039.88680719 .00005460 00000-0 44265-3 0 9991 2 03230 74.0325 36.2158 0027854 319.6409 40.2710 14.99631441 30902 OAO 2 1 3597U 68110A 25040.09923782 .00000534 00000-0 14998-3 0 9997 2 3597 34.9936 302.2102 0006255 280.8375 79.1611 14.46979083962532 ISIS 1 1 3669U 69009A 25039.99898258 .00000731 00000-0 51269-3 0 9992 2 3669 88.4501 198.2138 1708726 163.8477 202.4859 11.30191032304391 SERT 2 1 4327U 70009A 25040.16666720 .00000064 00000-0 14337-3 0 9998 2 4327 99.2231 0.8414 0005766 90.0626 281.2746 13.58676328726866 SL-3 R/B 1 05118U 71028B 25039.86806991 .00022936 00000-0 58366-3 0 9992 2 05118 81.2464 169.2228 0029380 233.1329 126.7219 15.38997329927717 ASTEX 1 1 5560U 71089A 25040.17969906 .00001142 00000-0 29437-3 0 9995 2 5560 92.7113 24.3911 0014918 342.0636 18.0041 14.50117556805549 SL-8 R/B 1 5730U 71119B 25040.10723301 .00014446 00000-0 79001-3 0 9991 2 5730 73.8899 186.7576 0584973 233.8730 120.6930 14.29314816599073 COSMOS 482 DESCENT CRAFT 1 6073U 72023E 25040.11830144 .00244017 10146-4 18919-3 0 9998 2 6073 51.9767 340.6774 0391620 130.2420 233.3525 15.41925633737163 OAO 3 (COPERNICUS) 1 6153U 72065A 25040.11790321 .00000821 00000-0 17465-3 0 9997 2 6153 35.0073 18.8739 0006783 188.3413 264.0016 14.59522228788926 ATLAS CENTAUR R/B 1 06155U 72065B 25039.59742142 .00003203 00000-0 45424-3 0 9990 2 06155 35.0025 92.7632 0035145 295.5402 64.1666 14.76172330782963 SL-8 R/B 1 08459U 75112B 25039.96721418 .00000492 00000-0 17161-3 0 9993 2 08459 74.0613 23.0195 0016570 216.8320 143.1697 14.37886951575279 SL-3 R/B 1 10114U 77057B 25039.95490202 .00012425 00000-0 36476-3 0 9996 2 10114 97.5340 193.7685 0007878 259.2115 100.8241 15.35266197607724 SEASAT 1 1 10967U 78064A 25039.83980745 .00000962 00000-0 31027-3 0 9994 2 10967 108.0078 19.4760 0002722 287.7673 72.3175 14.45622644449582 SL-14 R/B 1 11267U 79011B 25040.19618607 .00001043 00000-0 10239-3 0 9990 2 11267 82.5239 109.7023 0014706 293.6537 66.3138 14.91200644491320 SL-8 R/B 1 11574U 79089B 25039.87825067 .00000452 00000-0 14556-3 0 9998 2 11574 74.0682 99.8140 0015689 7.4945 352.6442 14.41988103379336 SL-14 R/B 1 11672U 80005B 25039.81626195 .00001355 00000-0 13693-3 0 9996 2 11672 82.5172 320.6302 0017157 40.6522 319.5974 14.90221307417818 SL-8 R/B 1 12139U 81003B 25039.96682328 .00022553 00000-0 71621-3 0 9998 2 12139 82.9358 289.6037 0326944 91.1109 272.7584 14.93720455255565 SL-3 R/B 1 12465U 81046B 25039.95170999 .00012770 00000-0 40974-3 0 9999 2 12465 81.2343 38.7272 0021678 306.0270 53.8958 15.31970101377959 METEOR PRIRODA 1 12585U 81065A 25040.11235610 .00041112 00000-0 60732-3 0 9991 2 12585 97.5116 84.5785 0005858 294.4965 65.5677 15.55216908388359 SL-3 R/B 1 12904U 81103B 25040.21551767 .00005931 00000-0 30234-3 0 9997 2 12904 81.1638 313.2247 0017955 180.1477 179.9750 15.16468037913734 SL-3 R/B 1 13068U 82013B 25039.89331543 .00005820 00000-0 28586-3 0 9994 2 13068 81.1738 260.8559 0025116 64.6747 295.7079 15.17622464344538 SL-3 R/B 1 13154U 82039B 25040.15657595 .00004911 00000-0 32220-3 0 9997 2 13154 81.1834 307.8023 0033158 171.0594 189.1228 15.07032212322574 SL-3 R/B 1 13403U 82079B 25039.95592607 .00006525 00000-0 30533-3 0 9994 2 13403 81.1499 296.0963 0028940 53.7648 306.6251 15.19213846317808 SL-3 R/B 1 13819U 83010B 25039.69025773 .00014356 00000-0 42414-3 0 9999 2 13819 81.1087 120.8292 0019469 335.0124 25.0170 15.34636788297295 COSMOS 1455 1 14032U 83037A 25040.12235504 .00052582 00000-0 70710-3 0 9994 2 14032 82.4991 182.3810 0007709 215.5884 144.4858 15.57637453286606 SL-3 R/B 1 14208U 83075B 25040.15222059 .00011335 00000-0 40548-3 0 9992 2 14208 97.5924 28.3443 0027057 183.0841 177.0236 15.28617111270135 COSMOS 1500 1 14372U 83099A 25039.90869275 .00069861 00000-0 72843-3 0 9998 2 14372 82.4926 74.6276 0004068 32.1875 327.9632 15.64263209262893 COSMOS 1536 1 14699U 84013A 25039.78155058 .00009791 00000-0 48642-3 0 9996 2 14699 82.5501 137.4516 0016709 215.4734 144.5389 15.17416678212755 SL-14 R/B 1 14820U 84027B 25039.83606772 .00000878 00000-0 98884-4 0 9998 2 14820 82.5391 254.2129 0017712 193.2615 166.8138 14.85411873189154 SL-8 R/B 1 15483U 85006B 25040.08580329 .00000337 00000-0 12132-3 0 9991 2 15483 74.0441 265.2181 0019582 276.2597 195.8572 14.37454978 97736 SL-12 R/B(2) 1 15772U 85042D 25040.18156667 .00000143 00000-0 85826-4 0 9993 2 15772 71.1069 198.9899 0034530 14.6006 157.6041 14.21824344 58452 SL-14 R/B 1 15945U 85069B 25040.07398707 .00001028 00000-0 11486-3 0 9998 2 15945 82.5256 34.9053 0020522 58.6432 301.6789 14.85850397135471 SL-16 R/B 1 16182U 85097B 25040.03856082 -.00000039 00000-0 46292-5 0 9991 2 16182 71.0008 249.2518 0006180 153.0781 319.6919 14.16521873 31793 SL-14 R/B 1 16496U 86006B 25039.73088316 .00000876 00000-0 97351-4 0 9991 2 16496 82.5224 270.2389 0018008 199.7240 226.0841 14.85957167 90680 COSMOS 1743 1 16719U 86034A 25040.19450259 .00018160 00000-0 49628-3 0 9999 2 16719 82.5424 119.0727 0006543 261.4700 98.5803 15.37241519119738 SL-14 R/B 1 16792U 86046B 25040.18440310 .00000772 00000-0 87146-4 0 9997 2 16792 82.4800 91.7736 0025029 88.5034 271.9049 14.85023003 89115 SL-14 R/B 1 16882U 86055B 25040.25779484 .00001045 00000-0 11922-3 0 9994 2 16882 82.5227 136.3152 0018998 188.8903 228.1128 14.85068661 82139 EGS (AJISAI) 1 16908U 86061A 25040.13858980 -.00000080 00000-0 12504-3 0 9992 2 16908 50.0064 223.5036 0011310 6.5762 99.4765 12.44510642419344 COSMOS 1812 1 17295U 87003A 25039.91466753 .00028401 00000-0 59639-3 0 9992 2 17295 82.4994 254.9310 0002856 80.1644 279.9927 15.45205051 82902 SL-14 R/B 1 17567U 87024B 25040.15809937 .00000812 00000-0 90860-4 0 9998 2 17567 82.5272 102.4118 0019908 121.2516 239.0654 14.85561518 50846 COSMOS 1833 1 17589U 87027A 25040.19305712 .00000369 00000-0 22272-3 0 9999 2 17589 70.9174 73.0988 0023013 75.7856 284.5819 14.13012298954952 SL-16 R/B 1 17590U 87027B 25039.96224665 -.00000036 00000-0 57496-5 0 9991 2 17590 71.0036 26.1176 0005596 336.1433 23.9431 14.17084073959608 SL-14 R/B 1 17912U 87038B 25039.81740146 .00001013 00000-0 11615-3 0 9998 2 17912 82.5031 307.6523 0020373 29.8623 330.3751 14.84812153 20777 COSMOS 1844 1 17973U 87041A 25039.71629509 -.00000165 00000-0 -60344-4 0 9990 2 17973 70.8999 145.0946 0033525 255.4120 104.3283 14.14437677947877 SL-14 R/B 1 18153U 87055B 25039.93062822 .00001001 00000-0 11407-3 0 9992 2 18153 82.5014 0.0247 0019421 232.7072 127.2374 14.85075667 11482 COSMOS 1867 1 18187U 87060A 25039.90009937 .00000014 00000-0 43042-4 0 9994 2 18187 65.0123 329.4356 0018651 259.2938 100.6046 14.31415286963566 SL-14 R/B 1 18749U 88001B 25039.90018074 .00001025 00000-0 11708-3 0 9992 2 18749 82.5127 205.6461 0019614 99.7497 260.5935 14.84976842983560 COSMOS 1933 1 18958U 88020A 25040.12728541 .00005708 00000-0 31495-3 0 9995 2 18958 82.5147 279.0119 0005460 111.8159 248.3653 15.13761026 11814 SL-3 R/B 1 19046U 88032B 25040.15363280 .00007302 00000-0 39536-3 0 9991 2 19046 97.4751 22.5361 0030012 157.7269 202.5275 15.14532139992712 SL-16 R/B 1 19120U 88039B 25040.08202031 .00000087 00000-0 63803-4 0 9997 2 19120 71.0144 180.7709 0023586 227.8302 132.0820 14.19525904902795 COSMOS 1953 1 19210U 88050A 25039.88426801 .00011209 00000-0 49810-3 0 9998 2 19210 82.5114 192.2454 0013515 70.2918 289.9774 15.21320978977776 SL-8 R/B 1 19257U 88053B 25039.69947098 .00000499 00000-0 17109-3 0 9992 2 19257 74.0476 118.5003 0019580 33.5951 82.6551 14.38588106919933 COSMOS 1975 1 19573U 88093A 25039.77126732 .00011381 00000-0 51976-3 0 9992 2 19573 82.5256 150.6821 0014613 118.0637 242.2078 15.20368457959390 SL-14 R/B 1 19574U 88093B 25040.12690523 .00000921 00000-0 10470-3 0 9990 2 19574 82.5285 51.3157 0019209 259.4007 172.4143 14.85097868963701 SL-16 R/B 1 19650U 88102B 25040.03426300 -.00000167 00000-0 -60326-4 0 9996 2 19650 70.9976 259.7360 0016577 252.8451 107.0857 14.16072552871441 INTERCOSMOS 24 1 20261U 89080A 25039.93807178 .00000711 00000-0 20101-3 0 9994 2 20261 82.6100 0.4107 1192323 125.9584 245.8142 12.58715414617241 SL-14 R/B 1 20262U 89080C 25040.18299689 .00000669 00000-0 19857-3 0 9994 2 20262 82.5885 65.8558 1231598 4.1452 356.8777 12.50157524610543 DELTA 1 R/B 1 20323U 89089B 25040.12638311 .00000844 00000-0 21990-3 0 9990 2 20323 97.1198 304.2266 0068041 285.8054 73.5648 14.50198977859210 DELTA 2 R/B(1) 1 20453U 90008B 25039.55290776 .00028847 00000-0 78257-3 0 9992 2 20453 35.6143 171.8573 0158500 295.4402 62.9998 15.24920636865421 COSMOS 2058 1 20465U 90010A 25039.80602847 .00005039 00000-0 33155-3 0 9998 2 20465 82.4826 73.9456 0011324 205.0222 155.0459 15.07315186882821 SL-14 R/B 1 20466U 90010B 25039.93778466 .00000717 00000-0 84889-4 0 9993 2 20466 82.5012 277.0426 0020494 153.5042 206.7225 14.83049033870111 SL-14 R/B 1 20511U 90018B 25039.91625604 .00000803 00000-0 99115-4 0 9999 2 20511 82.5190 231.0108 0015405 310.8124 49.1753 14.81628413864268 HST 1 20580U 90037B 25039.71933748 .00009365 00000-0 37919-3 0 9990 2 20580 28.4660 194.3498 0002962 99.1209 260.9720 15.22925076713062 SL-16 R/B 1 20625U 90046B 25040.21661084 -.00000183 00000-0 -69668-4 0 9996 2 20625 70.9988 44.2223 0014582 192.7389 167.3367 14.14934004792982 COSMOS 2084 1 20663U 90055A 25039.88160047 .00006347 00000-0 46061-3 0 9999 2 20663 62.7893 235.5968 0080969 142.0582 218.6260 15.02260268877094 SL-6 R/B(2) 1 20666U 90055D 25040.00800289 .00004569 00000-0 36300-3 0 9996 2 20666 62.7842 150.0806 0047667 169.5100 190.7004 15.00998993878516 SL-8 R/B 1 20775U 90078B 25039.89663530 .00019309 00000-0 69068-3 0 9998 2 20775 82.9078 240.9725 0423593 243.1630 112.5687 14.72285421751011 SL-8 R/B 1 21088U 91006B 25039.94873736 .00000139 00000-0 12452-3 0 9991 2 21088 82.9409 102.9669 0023668 60.3322 112.5398 13.77423603709862 OKEAN 3 1 21397U 91039A 25039.94392372 .00005779 00000-0 44432-3 0 9990 2 21397 82.5198 357.3850 0013108 224.9301 135.0864 15.01486551805884 COSMOS 2151 1 21422U 91042A 25040.14274256 .00002527 00000-0 21166-3 0 9994 2 21422 82.4968 102.6374 0011210 312.6484 47.3793 14.98013906825386 SL-14 R/B 1 21423U 91042B 25039.95675936 .00000812 00000-0 10074-3 0 9993 2 21423 82.4906 229.2777 0018563 94.4166 265.9169 14.81343377794775 ERS 1 1 21574U 91050A 25039.93474577 .00000633 00000-0 21900-3 0 9996 2 21574 98.7917 43.2289 0031136 290.8332 68.9521 14.39028936759097 ARIANE 40 R/B 1 21610U 91050F 25039.87986443 .00000635 00000-0 20440-3 0 9990 2 21610 98.2585 100.6895 0003337 167.6362 192.4911 14.42448280762217 INTERCOSMOS 25 1 21819U 91086A 25039.89439090 .00002718 00000-0 54171-3 0 9995 2 21819 82.6069 187.8152 1494108 244.8715 99.0266 12.10162936449015 SL-14 R/B 1 21820U 91086B 25039.90007074 .00001195 00000-0 23651-3 0 9999 2 21820 82.5567 268.9261 1563981 193.3444 162.1277 11.95969067440167 SL-8 R/B 1 21876U 92008B 25040.19111806 .00000092 00000-0 78289-4 0 9990 2 21876 82.9270 200.3852 0035385 152.1144 20.5243 13.75900372655533 SL-8 R/B 1 21938U 92020B 25039.89693323 .00000064 00000-0 51083-4 0 9999 2 21938 82.9273 86.2365 0028055 319.1553 223.1501 13.75488646646993 SL-16 R/B 1 22220U 92076B 25040.17182366 -.00000002 00000-0 22817-4 0 9994 2 22220 71.0007 297.2619 0014013 325.9775 143.9888 14.16771443666421 SL-16 R/B 1 22285U 92093B 25039.88377723 .00000141 00000-0 96723-4 0 9993 2 22285 71.0211 110.9206 0005180 213.4417 146.6380 14.15359747657437 COSMOS 2228 1 22286U 92094A 25039.90849709 .00003082 00000-0 28060-3 0 9991 2 22286 82.5159 253.6365 0018483 183.5867 176.5225 14.94738358717188 SL-16 R/B 1 22566U 93016B 25039.95641904 .00000372 00000-0 21593-3 0 9992 2 22566 71.0093 322.0913 0011462 212.6822 147.3593 14.15229035646460 COSMOS 2242 1 22626U 93024A 25039.94056063 .00003179 00000-0 29319-3 0 9995 2 22626 82.5190 282.6290 0016408 184.1555 175.9532 14.94276488721546 SL-16 R/B 1 22803U 93059B 25040.18677343 .00000283 00000-0 16376-3 0 9990 2 22803 70.9904 120.8947 0014853 89.9066 270.3760 14.17138490624045 ARIANE 40 R/B 1 22830U 93061H 25039.81285092 .00000484 00000-0 19445-3 0 9990 2 22830 98.5426 110.3693 0010833 15.4527 344.6986 14.32529411637708 COSMOS 2278 1 23087U 94023A 25039.93278817 -.00000088 00000-0 -21130-4 0 9991 2 23087 71.0518 278.8380 0011236 269.1728 90.8107 14.14245686589130 SL-16 R/B 1 23088U 94023B 25039.81042457 -.00000153 00000-0 -54610-4 0 9990 2 23088 71.0001 178.0224 0003977 214.9966 145.0895 14.14940667590377 SL-16 R/B 1 23343U 94074B 25040.07114984 .00000890 00000-0 12772-3 0 9993 2 23343 97.7576 80.9286 0007969 67.4547 322.1471 14.78792324629278 SL-16 R/B 1 23405U 94077B 25040.15755459 -.00000195 00000-0 -75396-4 0 9994 2 23405 70.9822 100.3615 0002090 339.0760 21.0277 14.15487077560812 ARIANE 40+ R/B 1 23561U 95021B 25040.13705263 .00000565 00000-0 19592-3 0 9997 2 23561 98.4987 110.9036 0005968 234.3110 155.7354 14.39363506562841 SL-16 R/B 1 23705U 95058B 25039.93306750 .00000344 00000-0 20067-3 0 9995 2 23705 71.0209 286.8991 0012642 350.1308 9.9565 14.15422441512130 SL-16 R/B 1 24298U 96051B 25040.11521038 -.00000191 00000-0 -76695-4 0 9998 2 24298 70.7785 288.0484 0016577 347.4238 12.6466 14.12439261466332 ORBVIEW 2 (SEASTAR) 1 24883U 97037A 25039.89797788 .00000634 00000-0 23861-3 0 9999 2 24883 98.8041 189.9880 0002965 127.7006 232.4448 14.35073722451983 SL-16 R/B 1 25400U 98043G 25040.09824833 .00000158 00000-0 84999-4 0 9990 2 25400 98.7737 346.9405 0010943 77.7862 282.4543 14.25917174383125 SL-16 R/B 1 25407U 98045B 25040.13644588 .00000171 00000-0 11072-3 0 9997 2 25407 71.0113 289.1602 0009806 266.3539 93.6463 14.16109718371659 ISS (ZARYA) 1 25544U 98067A 25039.96162986 .00016131 00000-0 29064-3 0 9992 2 25544 51.6374 222.1245 0003546 290.1977 196.1848 15.49938732495274 CZ-4B R/B 1 25732U 99025C 25039.87071398 .00000157 00000-0 97140-4 0 9994 2 25732 98.7198 87.2667 0037751 38.1143 136.1510 14.18136288332346 OKEAN O 1 25860U 99039A 25039.87875932 .00001280 00000-0 17856-3 0 9990 2 25860 98.0030 97.5705 0001508 112.8941 247.2430 14.79440895376140 SL-16 R/B 1 25861U 99039B 25039.84153655 .00001242 00000-0 16712-3 0 9997 2 25861 98.0559 93.2678 0016336 93.8170 266.4911 14.80972894378551 TERRA 1 25994U 99068A 25040.19754632 .00000859 00000-0 18649-3 0 9992 2 25994 98.0169 102.4215 0002166 16.3019 50.2997 14.60454275337759 ENVISAT 1 27386U 02009A 25039.90202721 .00000329 00000-0 12060-3 0 9995 2 27386 98.3175 359.2208 0001299 91.2518 333.0811 14.38836106202549 IDEFIX/ARIANE 42P 1 27422U 02021B 25040.07685722 .00000601 00000-0 24660-3 0 9998 2 27422 98.5509 339.3596 0010696 267.0943 92.9015 14.30629146185833 AQUA 1 27424U 02022A 25040.15038493 .00001942 00000-0 40739-3 0 9991 2 27424 98.3618 357.0485 0002294 82.1383 7.4081 14.60810653211299 CZ-4B R/B 1 27432U 02024C 25040.14600787 .00000101 00000-0 74930-4 0 9999 2 27432 98.9436 89.2344 0051043 60.4120 4.6852 14.14445406173688 ADEOS 2 1 27597U 02056A 25040.11575803 .00000694 00000-0 29283-3 0 9990 2 27597 98.7229 352.2681 0002133 76.4447 283.6972 14.28865424154064 H-2A R/B 1 27601U 02056E 25039.91551074 .00000649 00000-0 24413-3 0 9996 2 27601 98.2631 11.7167 0069387 255.3007 163.2400 14.33340023157692 CZ-4B R/B 1 28059U 03049C 25039.89382262 .00001035 00000-0 25131-3 0 9993 2 28059 98.6449 15.4781 0048554 355.1232 4.9484 14.54455035129343 CZ-2C R/B 1 28222U 04012C 25040.08587331 .00022383 00000-0 60122-3 0 9991 2 28222 97.7857 71.2477 0025489 296.7279 63.1356 15.37609309143374 SL-16 R/B 1 28353U 04021B 25040.21419158 .00000424 00000-0 24586-3 0 9998 2 28353 71.0028 338.1806 0007226 273.8648 86.1648 14.14517582 67199 CZ-2C R/B 1 28480U 04046B 25040.09027560 .00000298 00000-0 12704-3 0 9992 2 28480 98.1875 334.7793 0138811 238.5402 120.2150 14.26720662 52378 ARIANE 5 R/B 1 28499U 04049H 25039.91032082 .00002609 00000-0 30069-3 0 9991 2 28499 98.2120 190.0993 0085978 186.1940 173.8218 14.83992982 87362 CZ-2D R/B 1 28738U 05024B 25039.95789201 .00023247 00000-0 63760-3 0 9992 2 28738 97.3696 42.9731 0008183 37.2378 322.9433 15.37247906 78900 ALOS 1 28931U 06002A 25040.13432740 .00003043 00000-0 54066-3 0 9990 2 28931 98.0689 354.8925 0002433 92.5632 267.5851 14.67883710 16084 H-2A R/B 1 28932U 06002B 25040.03555611 .00012302 00000-0 76994-3 0 9995 2 28932 98.1998 152.1155 0062643 132.9611 227.6893 15.07908161 35041 RESURS DK-1 1 29228U 06021A 25040.07418432 .00004488 00000-0 28298-3 0 9998 2 29228 69.9340 173.0222 0005485 331.4854 28.6009 15.09851017 28072 GENESIS 1 1 29252U 06029A 25040.17121222 .00064741 00000-0 72327-3 0 9992 2 29252 64.5061 74.2764 0034095 302.1163 57.6673 15.61648556 27348 CZ-4B R/B 1 29507U 06046C 25039.83676828 .00007049 00000-0 40819-3 0 9991 2 29507 97.6151 80.8191 0036837 184.6807 175.4084 15.11956264 438 CZ-2C R/B 1 31114U 07010B 25039.95350404 .00000231 00000-0 12533-3 0 9990 2 31114 98.3594 168.6752 0059083 0.5047 359.6180 14.20044763923834 SKYMED 1 1 31598U 07023A 25040.09792595 .00001160 00000-0 15224-3 0 9990 2 31598 97.8890 225.8374 0001250 83.2313 276.9042 14.82158456956293 GENESIS 2 1 31789U 07028A 25040.23409779 .00048475 00000-0 66080-3 0 9998 2 31789 64.4822 122.2615 0014427 317.3808 42.6214 15.57115464974113 COSMOS 2428 1 31792U 07029A 25040.18019470 -.00000071 00000-0 -12661-4 0 9991 2 31792 70.9448 309.3784 0002995 61.0128 299.1293 14.12852561908594 SL-16 R/B 1 31793U 07029B 25040.11340779 -.00000162 00000-0 -59470-4 0 9994 2 31793 70.9750 279.6600 0002876 264.4430 207.9999 14.14744286909799 KORONAS-FOTON 1 33504U 09003A 25039.82239827 .00010560 00000-0 32625-3 0 9990 2 33504 82.4370 322.0801 0014594 117.4717 242.8011 15.33281887885193 H-2A R/B 1 38341U 12025E 25039.78306164 .00004095 00000-0 40484-3 0 9994 2 38341 98.4287 332.7390 0048256 157.3316 203.0047 14.91671567689429 CUSAT 2/FALCON 9 1 39271U 13055G 25039.60136275 .12343816 -98682-6 19828-3 0 9994 2 39271 80.8811 140.2461 0019365 229.2526 242.6684 16.46677559602073 ALOS 2 1 39766U 14029A 25040.23098051 .00003329 00000-0 45239-3 0 9999 2 39766 97.9218 139.4792 0001469 99.6884 260.4493 14.79474952578727 ASTRO H 1 41337U 16012A 25039.59783650 .00005224 00000-0 33581-3 0 9996 2 41337 31.0023 13.7706 0010230 334.5267 25.4865 15.06830110492672